ANACAPA ISLAND CA US current weather conditions

sailwx.info

Wind from 341 at 6 knots gusting 7

Air temperature 14.4° C
Dewpoint 11.9° C

Last reported at 2015-Jan-28 13:23 UTC.
Time now 2015-Jan-28 14:17 UTC

Location: N 34°01' W 119°22'.
View on Google Maps.

See reports from other nearby stations

  
Tides and Currents Weather Stations Pressure Air Temp Water Temp Dewpoint Dewpoint Depression Visibility Wind Speed Wind Dir Waves Ship Positions
date/time (UTC)wind fromknots sea level pressurealtimeterstation pressurevisibilityair tempwater tempwave heightnotes
2015-Jan-28 13:23 341 6 gusting 7 14.4
2015-Jan-28 12:23 346 5 gusting 9 15.0
2015-Jan-28 11:23 334 6 gusting 9 15.0
2015-Jan-28 10:23 343 8 gusting 12 15.0
2015-Jan-28 09:23 328 6 gusting 10 15.0
2015-Jan-28 08:23 338 5 gusting 11 15.0
2015-Jan-28 07:23 345 7 gusting 11 15.0
2015-Jan-28 05:23 308 6 gusting 11 15.0
2015-Jan-28 04:23 320 6 gusting 12 15.6
2015-Jan-28 03:23 303 6 gusting 12 15.0
2015-Jan-28 02:23 305 6 gusting 10 15.0
2015-Jan-28 01:23 311 5 gusting 8 15.6
2015-Jan-28 00:23 290 5 gusting 10 17.2
2015-Jan-27 23:23 279 5 gusting 8 18.3
2015-Jan-27 22:23 288 3 gusting 6 18.3
2015-Jan-27 21:23 271 2 gusting 4 18.9
2015-Jan-27 20:23 324 1 gusting 3 17.8
2015-Jan-27 19:23 039 1 gusting 4 16.7
2015-Jan-27 18:23 033 3 gusting 6 16.7
2015-Jan-27 17:23 025 2 gusting 4 15.6
2015-Jan-27 16:23 069 2 gusting 4 15.0
2015-Jan-27 15:23 040 0 gusting 3 14.4
2015-Jan-27 14:23 036 2 gusting 5 14.4
2015-Jan-27 13:23 070 4 gusting 6 14.4
2015-Jan-27 12:23 077 4 gusting 7 15.0
2015-Jan-27 11:23 078 4 gusting 8 15.0
2015-Jan-27 10:23 047 4 gusting 9 15.0
2015-Jan-27 09:23 033 2 gusting 8 14.4
2015-Jan-27 08:23 034 3 gusting 9 14.4
2015-Jan-27 07:23 085 4 gusting 11 15.0
2015-Jan-27 05:23 081 10 gusting 19 15.0
2015-Jan-27 04:23 073 9 gusting 18 15.0
2015-Jan-27 03:23 050 11 gusting 16 16.1
2015-Jan-27 02:23 064 8 gusting 18 16.1
2015-Jan-27 01:23 036 5 gusting 12 17.2
2015-Jan-27 00:23 035 3 gusting 15 16.7
2015-Jan-26 23:23 038 6 gusting 12 18.3
2015-Jan-26 22:23 091 2 gusting 10 18.9
2015-Jan-26 21:23 096 4 gusting 6 21.1
2015-Jan-26 20:23 173 0 gusting 4 21.1
2015-Jan-26 19:23 023 2 gusting 11 19.4
2015-Jan-26 18:23 296 4 gusting 6 19.4
2015-Jan-26 17:23 291 2 gusting 14 18.9
2015-Jan-26 16:23 231 4 gusting 8 18.3
2015-Jan-26 15:23 297 2 gusting 6 17.2
2015-Jan-26 14:23 358 3 gusting 6 17.8